TimeCST,TemperatureF,Dew PointF,Humidity,Sea Level PressureIn,VisibilityMPH,Wind Direction,Wind SpeedMPH,Gust SpeedMPH,PrecipitationIn,Events,Conditions,WindDirDegrees,DateUTC
12:15 AM,10.4,1.4,67,30.15,10.0,West,12.7,17.3,N/A,,Scattered Clouds,270,2013-01-21 06:15:00
12:35 AM,10.4,3.2,73,30.14,10.0,West,11.5,17.3,N/A,,Overcast,270,2013-01-21 06:35:00
12:55 AM,12.2,3.2,67,30.13,10.0,West,12.7,19.6,N/A,,Overcast,260,2013-01-21 06:55:00
1:15 AM,10.4,1.4,67,30.13,10.0,West,17.3,20.7,N/A,,Overcast,280,2013-01-21 07:15:00
1:35 AM,10.4,1.4,67,30.13,10.0,West,16.1,23.0,N/A,,Mostly Cloudy,280,2013-01-21 07:35:00
1:55 AM,10.4,1.4,67,30.13,7.0,West,10.4,20.7,N/A,,Mostly Cloudy,270,2013-01-21 07:55:00
2:15 AM,10.4,1.4,67,30.13,10.0,West,15.0,20.7,N/A,,Scattered Clouds,280,2013-01-21 08:15:00
2:35 AM,10.4,1.4,67,30.12,10.0,WNW,11.5,-,N/A,,Clear,290,2013-01-21 08:35:00
2:55 AM,8.6,1.4,73,30.12,10.0,WNW,10.4,-,N/A,,Clear,290,2013-01-21 08:55:00
3:15 AM,8.6,-0.4,67,30.11,10.0,WNW,9.2,17.3,N/A,,Clear,290,2013-01-21 09:15:00
3:35 AM,8.6,-0.4,67,30.11,10.0,West,9.2,-,N/A,,Clear,280,2013-01-21 09:35:00
3:55 AM,8.6,1.4,73,30.10,10.0,West,9.2,-,N/A,,Mostly Cloudy,280,2013-01-21 09:55:00
4:15 AM,8.6,1.4,73,30.10,7.0,West,11.5,21.9,N/A,,Overcast,270,2013-01-21 10:15:00
4:35 AM,8.6,-0.4,67,30.10,10.0,West,18.4,-,N/A,,Overcast,270,2013-01-21 10:35:00
4:55 AM,6.8,-0.4,72,30.10,10.0,West,18.4,23.0,N/A,,Overcast,270,2013-01-21 10:55:00
5:15 AM,5.0,-0.4,78,30.10,5.0,West,19.6,24.2,N/A,,Haze,280,2013-01-21 11:15:00
5:35 AM,5.0,-4.0,66,30.10,10.0,West,16.1,20.7,N/A,,Mostly Cloudy,270,2013-01-21 11:35:00
5:55 AM,5.0,-4.0,66,30.11,10.0,West,17.3,21.9,N/A,,Scattered Clouds,280,2013-01-21 11:55:00
6:15 AM,3.2,-5.8,66,30.11,10.0,WNW,15.0,23.0,N/A,,Clear,290,2013-01-21 12:15:00
6:35 AM,3.2,-5.8,66,30.12,10.0,West,18.4,25.3,N/A,,Clear,280,2013-01-21 12:35:00
6:55 AM,3.2,-5.8,66,30.12,10.0,West,17.3,20.7,N/A,,Scattered Clouds,280,2013-01-21 12:55:00
7:15 AM,3.2,-5.8,66,30.12,10.0,West,21.9,26.5,N/A,,Mostly Cloudy,280,2013-01-21 13:15:00
7:35 AM,1.4,-7.6,66,30.13,10.0,West,18.4,23.0,N/A,,Mostly Cloudy,280,2013-01-21 13:35:00
7:55 AM,1.4,-7.6,66,30.14,10.0,WNW,17.3,23.0,N/A,,Scattered Clouds,290,2013-01-21 13:55:00
8:15 AM,1.4,-5.8,72,30.15,5.0,WNW,19.6,25.3,N/A,,Haze,290,2013-01-21 14:15:00
8:35 AM,1.4,-5.8,72,30.16,3.0,West,18.4,24.2,N/A,,Haze,280,2013-01-21 14:35:00
8:55 AM,1.4,-7.6,66,30.16,5.0,WNW,17.3,25.3,N/A,,Haze,300,2013-01-21 14:55:00
9:15 AM,1.4,-7.6,66,30.17,10.0,WNW,18.4,26.5,N/A,,Overcast,300,2013-01-21 15:15:00
9:35 AM,1.4,-9.4,61,30.18,10.0,WNW,17.3,24.2,N/A,,Mostly Cloudy,300,2013-01-21 15:35:00
9:55 AM,3.2,-7.6,61,30.18,10.0,WNW,16.1,-,N/A,,Mostly Cloudy,290,2013-01-21 15:55:00
10:15 AM,3.2,-9.4,56,30.19,10.0,WNW,18.4,24.2,N/A,,Mostly Cloudy,300,2013-01-21 16:15:00
10:35 AM,3.2,-9.4,56,30.19,10.0,West,17.3,23.0,N/A,,Mostly Cloudy,280,2013-01-21 16:35:00
10:55 AM,3.2,-9.4,56,30.19,10.0,WNW,16.1,21.9,N/A,,Mostly Cloudy,290,2013-01-21 16:55:00
11:15 AM,3.2,-9.4,56,30.18,10.0,West,16.1,23.0,N/A,,Scattered Clouds,270,2013-01-21 17:15:00
11:35 AM,5.0,-9.4,52,30.18,10.0,WNW,18.4,23.0,N/A,,Scattered Clouds,300,2013-01-21 17:35:00
11:55 AM,5.0,-9.4,52,30.17,10.0,West,12.7,24.2,N/A,,Scattered Clouds,270,2013-01-21 17:55:00
12:15 PM,5.0,-9.4,52,30.16,10.0,WNW,15.0,23.0,N/A,,Scattered Clouds,300,2013-01-21 18:15:00
12:35 PM,5.0,-9.4,52,30.16,10.0,WNW,18.4,26.5,N/A,,Scattered Clouds,290,2013-01-21 18:35:00
12:55 PM,5.0,-9.4,52,30.15,10.0,West,17.3,23.0,N/A,,Scattered Clouds,280,2013-01-21 18:55:00
1:15 PM,5.0,-9.4,52,30.15,10.0,West,16.1,26.5,N/A,,Scattered Clouds,280,2013-01-21 19:15:00
1:35 PM,6.8,-9.4,48,30.15,10.0,West,21.9,27.6,N/A,,Scattered Clouds,270,2013-01-21 19:35:00
1:55 PM,6.8,-9.4,48,30.15,10.0,West,23.0,28.8,N/A,,Clear,270,2013-01-21 19:55:00
2:15 PM,5.0,-9.4,52,30.15,10.0,WNW,19.6,27.6,N/A,,Clear,290,2013-01-21 20:15:00
2:35 PM,6.8,-9.4,48,30.15,10.0,West,13.8,27.6,N/A,,Scattered Clouds,280,2013-01-21 20:35:00
2:55 PM,5.0,-9.4,52,30.16,10.0,West,16.1,28.8,N/A,,Mostly Cloudy,280,2013-01-21 20:55:00
3:15 PM,6.8,-9.4,48,30.16,10.0,WNW,16.1,24.2,N/A,,Scattered Clouds,290,2013-01-21 21:15:00
3:35 PM,6.8,-9.4,48,30.16,10.0,West,19.6,-,N/A,,Clear,280,2013-01-21 21:35:00
3:55 PM,5.0,-11.2,47,30.16,10.0,West,19.6,27.6,N/A,,Clear,280,2013-01-21 21:55:00
4:15 PM,5.0,-9.4,52,30.16,10.0,West,15.0,24.2,N/A,,Clear,270,2013-01-21 22:15:00
4:35 PM,5.0,-9.4,52,30.17,10.0,West,20.7,26.5,N/A,,Clear,280,2013-01-21 22:35:00
4:55 PM,5.0,-9.4,52,30.17,10.0,West,17.3,26.5,N/A,,Clear,280,2013-01-21 22:55:00
5:15 PM,3.2,-9.4,56,30.17,10.0,West,13.8,20.7,N/A,,Clear,280,2013-01-21 23:15:00
5:35 PM,3.2,-9.4,56,30.18,10.0,West,19.6,-,N/A,,Clear,270,2013-01-21 23:35:00
5:55 PM,3.2,-9.4,56,30.18,10.0,West,13.8,21.9,N/A,,Clear,280,2013-01-21 23:55:00
6:15 PM,3.2,-9.4,56,30.18,10.0,West,17.3,23.0,N/A,,Clear,270,2013-01-22 00:15:00
6:55 PM,3.2,-7.6,61,30.19,10.0,West,15.0,-,N/A,,Clear,270,2013-01-22 00:55:00
7:15 PM,3.2,-7.6,61,30.19,10.0,West,13.8,23.0,N/A,,Clear,270,2013-01-22 01:15:00
7:35 PM,3.2,-7.6,61,30.19,10.0,West,15.0,21.9,N/A,,Clear,270,2013-01-22 01:35:00
7:55 PM,3.2,-7.6,61,30.20,10.0,West,12.7,-,N/A,,Clear,280,2013-01-22 01:55:00
8:15 PM,3.2,-9.4,56,30.20,10.0,West,15.0,19.6,N/A,,Clear,280,2013-01-22 02:15:00
8:35 PM,3.2,-9.4,56,30.20,10.0,WNW,13.8,21.9,N/A,,Clear,290,2013-01-22 02:35:00
8:55 PM,3.2,-9.4,56,30.20,10.0,West,10.4,23.0,N/A,,Clear,280,2013-01-22 02:55:00
9:35 PM,1.4,-9.4,61,30.21,10.0,West,12.7,17.3,N/A,,Clear,280,2013-01-22 03:35:00
9:55 PM,1.4,-9.4,61,30.22,10.0,WNW,10.4,17.3,N/A,,Clear,290,2013-01-22 03:55:00
10:15 PM,1.4,-9.4,61,30.22,10.0,West,12.7,17.3,N/A,,Clear,280,2013-01-22 04:15:00
10:35 PM,1.4,-9.4,61,30.22,10.0,WNW,11.5,17.3,N/A,,Clear,290,2013-01-22 04:35:00
10:55 PM,1.4,-9.4,61,30.23,10.0,WNW,13.8,18.4,N/A,,Clear,290,2013-01-22 04:55:00
11:35 PM,1.4,-7.6,66,30.23,10.0,WNW,9.2,-,N/A,,Clear,290,2013-01-22 05:35:00
11:55 PM,1.4,-9.4,61,30.22,10.0,WNW,9.2,-,N/A,,Clear,290,2013-01-22 05:55:00